Espace membre
Imprimable
Wissant, 09-10/09/2017, BEL - Trail de la Côte d'Opale
Liste des rapports > 42km - Classement
Recherche: Page: [1]
474 Entrées
 
Les réclamations ne sont plus acceptées, les résultats sont considérés comme définitifs.
Catégorie
PosNrLicenceNomAgeIOCEquipeTempsTkmMoy.RangNomLocalité
1.1036BRIENS Cedric36FRATEAM TO23:32:455:04 11.851sem
2.1333BREUVART Martin39FRA3:33:285:05 11.812sem
3.1566DELCOUR Thomas25FRATEAM TRIATHLON 3:36:505:10 11.623sem
4.1025LEPERS Damien55FRAPOINTURES DE SE3:37:545:12 11.571v2m
5.1118FASQUEL Dominique48FRAASSOS OAO FREDE3:38:065:12 11.551v1m
6.1495POIRET George43FRABOULOGNE AC3:42:025:18 11.352v1m
7.1616LEZY Bart39BEL3:42:235:18 11.334sem
8.1505MANIEZ Sylvain45FRAMONTERIA3:44:165:21 11.243v1m
9.1547PECQUEUX Lucas21FRATRIATHLON CLUB 3:47:125:25 11.095sem
10.15161639043BIANCHI Benjamin35FRAGRAVITY3:47:125:25 11.096sem
11.1107VERBRIGGHE Norbert30FRAFOULEES LOONOIS3:49:165:28 10.997sem
12.1540DEMARET Frederik40BELFCHA3:51:185:31 10.904v1m
13.1182BEUGNET Mathieu33FRAASL SAINT LAURE3:52:375:33 10.838sem
14.1094FROSILLON Caroline30FRAJOG'IN ATTITUDE3:53:405:34 10.791sef
15.1185NOCLERCQ Christophe40FRALES FOULÉES FLE3:54:145:35 10.765v1m
16.1166CHERPION Jerome30BEL3:54:245:35 10.759sem
17.1613LEMAZURIER Loïc32FRA3:54:375:36 10.7410sem
18.1077POCLET Thibaut28FRA3:54:455:36 10.7311sem
19.1490FSAUVAGE Valerie39FRA3:56:025:38 10.682sef
20.1289BOIDIN Clément27FRAVAFA3:56:045:38 10.6812sem
21.571SOISSONS Marc54FRA3:57:205:40 10.622v2m
22.1283LEMAIRE Pierre35FRA3:58:355:41 10.5613sem
23.1594FDEKEISTER Olivia39FRA3:58:425:41 10.563sef
24.1533PLATTEAU Olivier49BELJOGGING CLUB BA3:59:295:43 10.526v1m
25.1590BLONDEL Benoit33FRA3:59:335:43 10.5214sem
26.1589DELATTRE Aurélien24FRA4:00:085:44 10.4915sem
27.1019LEGAST Francois39BELCOACH RUNNING4:01:475:46 10.4216sem
28.1148KEIRLE Romain29FRARHUMCREW594:02:235:47 10.4017sem
29.1033DELPLANQUE Sébastien28FRA4:02:385:47 10.3918sem
30.1205BREFORT Mickaël39FRA4:02:515:47 10.3819sem
31.1034DESMIDT Vincent32FRA4:02:555:48 10.3720sem
32.1621ALLAN François54FRAPLANETE RUNNING4:03:165:48 10.363v2m
33.1634MALENGREAUX Benjamin35BELFAT TEAM4:03:365:48 10.3521sem
34.1332JOYEZ Timothée21FRA4:04:055:49 10.3222sem
35.1514DESAINS Stéphane46FRA4:05:165:51 10.287v1m
36.1501REGNIER Benjamin33FRA4:05:375:51 10.2623sem
37.1115TORRESE Guido46ITACS DYLE4:05:385:51 10.268v1m
38.1550LEHON Ludovic34FRAAC OUTREAU4:06:475:53 10.2124sem
39.1295LEFEBVRE Nicolas52BELLES TOURISTES4:06:525:53 10.214v2m
40.1461DELHAYE Olivier39FRA4:07:015:53 10.2025sem
41.1286WAVREILLE Guillaume38FRA4:07:015:53 10.2026sem
42.1128FACON Olivier50FRA4:07:335:54 10.185v2m
43.1457FKERIS Monique53BELJOGINATTITUDE4:07:585:55 10.161v2f
44.1575ADAM Gregoire35FRA4:12:036:01 10.0027sem
45.1648BRUNET Pierre-Damien39FRA4:12:046:01 10.0028sem
46.16071947368LEFEBVRE Francois40FRATOUQUET TRAIL N4:13:396:03 9.949v1m
47.1064CHRISTIAENS Alexandre35BEL4:13:586:03 9.9229sem
48.1061CRIQUI Matthieu40FRATEAM GRAVELINES4:16:346:07 9.8210v1m
49.1248BAILLY Renaud33FRALONGUENESSE NAT4:16:366:07 9.8230sem
50.1280CAMPAGNE Frederic33FRALES CHTIS MARAT4:16:546:07 9.8131sem
51.10161794083FLAHAUT Frederic39FRAUS CAMON4:17:426:09 9.7832sem
52.1031FOURRIER Pierre-Antoine35FRA4:17:526:09 9.7733sem
53.1315MUYL Nicolas35FRA4:18:026:09 9.7734sem
54.1190JEANNETTEAU Anthony34FRA4:18:106:09 9.7635sem
55.1110LARDEY-GOURDEN Thomas39FRAGPMD4:18:116:09 9.7636sem
56.1273VANDERMEERSCH Simon31FRA4:18:276:10 9.7537sem
57.1517MILLE Bastien28FRA4:18:316:10 9.7538sem
58.1113MARTEL Sébastien43FRA4:18:376:10 9.7411v1m
59.1076SALINGUE Loic40FRA4:18:496:10 9.7412v1m
60.1544STANGHERLIN Gregor43BELJIA4:18:536:10 9.7313v1m
61.12591106064BOSSUYT Guillaume27FRAATHLÉTISME CLUB4:19:056:11 9.7339sem
62.1510TIERNY Arnaud46FRAGRAVITY4:19:096:11 9.7214v1m
63.1102PAUWELS Bart44BELFLAC4:19:386:11 9.7115v1m
64.1219JUDAS Fabrice37FRA4:19:406:11 9.7040sem
65.15221851787DUPORGE Miguel31FRAARTOIS ATHLETIS4:21:026:13 9.6541sem
66.1013NATALE Christophe54FRALMC4:21:056:13 9.656v2m
67.1303DEROCH Meidhy30FRALES LOUPS BLANC4:22:016:15 9.6242sem
68.1093PARPETE Guillaume28FRA4:22:066:15 9.6243sem
69.1142ROY Simon39FRA4:22:076:15 9.6144sem
70.1293DESTOMBES Benoit55FRA4:22:216:15 9.617v2m
71.1625SZYLAR Mickael45FRALES FOULÈES HOU4:22:306:15 9.6016v1m
72.1578DRAUX Pascal57FRATC LIEVIN4:22:576:16 9.588v2m
73.1427BOURGUIGNON Fabien40BELMADRES4:22:596:16 9.5817v1m
74.1173QUEHEN Franz47FRA4:23:056:16 9.5818v1m
75.2384SCHIEX Guerric49FRA4:23:276:17 9.5719v1m
76.1546SIMONNE Cedric41FRALES AGNELETS4:23:466:17 9.5520v1m
77.1527DELECROIX Benoit39BEL4:23:496:17 9.5545sem
78.1577DELVILLE Jerome42FRA4:23:516:17 9.5521v1m
79.1642EECKHOUT Koen39BELRACING CLUB GEN4:24:136:18 9.5446sem
80.1237LEBAILLY Pascal45BEL4:24:396:19 9.5222v1m
81.1298CHARLES Antoine36FRAFAT TEAM4:25:306:20 9.4947sem
82.1029VANHERSECKE Hugues35FRARENAULT DOUAI4:26:096:21 9.4748sem
83.1599CASTEL Benjamin35FRAUSBW4:26:196:21 9.4649sem
84.1164DE BAROLET Henri44FRABBB4:26:366:21 9.4523v1m
85.1043BOULANGER Thibault33FRA4:26:446:22 9.4550sem
86.1602HARLÉ Christophe38FRA4:26:476:22 9.4551sem
87.1187FDUVAL Sabrina42FRA4:26:476:22 9.451v1f
88.1548T301322HERMANT Sebastien39FRA4:26:496:22 9.4552sem
89.1151LEURENT Brieuc27FRATEAM DES PETITS4:28:146:24 9.3953sem
90.1223GUARDIA Jean-Luc67FRANL 914:28:586:25 9.371v3m
91.1144CARLU Marc39FRA4:29:226:25 9.3654sem
92.10971742516FFLAMENT Caroline47FRAS/L US TOURCOIN4:29:306:25 9.352v1f
93.1250BUN Olivier36FRA4:29:456:26 9.3455sem
94.1573LESTIENNE Edouard36FRA4:29:476:26 9.3456sem
95.1058HAPKA Hugues35FRA4:30:016:26 9.3357sem
96.1149TEDDY Dekimpe25FRATEAM DES PETITS4:31:256:28 9.2958sem
97.1624RIESTRA LUEGE José Manuel47ESPMYSTÈRE4:31:426:29 9.2824v1m
98.1628FLECONTE Sylvie33FRAPAC4:33:206:31 9.224sef
99.1316NORET Nicolas35FRA4:33:206:31 9.2259sem
100.1604BIZALION Louis30FRA4:33:226:31 9.2260sem
101.1001LEGAGNEUR Mathieu32DECATHLON ST-MA4:33:356:31 9.2161sem
102.1049LUBRET Henri29FRA4:34:496:33 9.1762sem
103.1529GODART Jean-Christophe43FRATEAM TRAIL 624:35:026:33 9.1625v1m
104.1168JONCKHEERE Eddy50BEL4:35:216:34 9.159v2m
105.1030DELVART Vincent35FRAJOGGING CLUB DE4:35:226:34 9.1563sem
106.1251BOUDIN Jean-François44FRA4:35:316:34 9.1526v1m
107.1018WAY Stéphane44FRA4:35:316:34 9.1527v1m
108.1017AGNERAY Stephane40FRALYS CALAIS TRIA4:35:326:34 9.1528v1m
109.1587BELHANDOUZ Sébastien42FRA4:36:266:35 9.1229v1m
110.1156BONMORT Jeremy37FRAASLA4:36:286:35 9.1264sem
111.1194VILLERS Fabian31BEL4:36:356:36 9.1165sem
112.1254LOBOZIAK Christophe46FRAFOREST RUNNING 4:36:426:36 9.1130v1m
113.1253HADRI Sebastien32FRAFOULÉES LOONOIS4:37:026:36 9.1066sem
114.1455CHAUCHOY Olivier48FRACOLEMBERT4:37:246:37 9.0831v1m
115.1337DAVILA Xavier45FRA4:37:246:37 9.0832v1m
116.1497CHIROUTTE Olivier45FRA4:37:266:37 9.0833v1m
117.1551JOLY Lucas45FRALA FORESTIÈRE4:38:086:38 9.0634v1m
118.1328LELIEUR Guillaume41FRA4:38:236:38 9.0535v1m
119.1081DEPIERRE Jean-Michel50FRAFOULÉES SAINGHI4:38:346:38 9.0510v2m
120.1274NICODEME Brice26FRA4:38:456:39 9.0467sem
121.1258VAN HOECKE Nick46BEL4:39:166:39 9.0236v1m
122.1500CARBONNIER Laurent43BELCARBONNIX4:39:276:40 9.0237v1m
123.1126DEGUINES Jean-Baptiste36FRA4:39:366:40 9.0168sem
124.1105SAVARY Rémy29FRA4:39:466:40 9.0169sem
125.1021MESTACK Stephane42FRAWILD TEAM TRIAT4:39:466:40 9.0138v1m
126.1226LEROY Simon34FRA4:39:576:40 9.0070sem
127.1038BERTRAND Gilles48BEL4:39:586:40 9.0039v1m
128.1563LEPLAT Pierre Alexis30FRA4:39:596:40 9.0071sem
129.1564FLECAT Mathilde28FRA4:39:596:40 9.005sef
130.1521GRÉMONT Romuald44FRA4:40:016:41 9.0040v1m
131.1519VASSEUR Dimitri44FRACAC CALOTERIE4:40:016:41 9.0041v1m
132.16191926779MARECAUX Eric32FRALMA4:40:276:41 8.9972sem
133.1572DENIS Romain30FRA4:40:346:41 8.9873sem
134.1060BILLAUT Olivier40FRALOUPS BLANCS4:40:426:41 8.9842v1m
135.1622LEFEBVRE Julien41FRAFAW WASQUEHAL4:40:476:42 8.9843v1m
136.1046DERISOUD David44FRA4:41:046:42 8.9744v1m
137.1492WAROT Arnaud37FRACH'TRAILERS TEA4:41:276:43 8.9574sem
138.15451796829BADON Emmanuel40FRAAC OUTREAU4:41:296:43 8.9545v1m
139.1278JOUFFROY Baptiste42FRARUN AGAINST THE4:42:056:43 8.9346v1m
140.1160TALPAERT Arthur40FRA4:42:246:44 8.9247v1m
141.1272BUTEL David45FRARCATRI ARRAS4:42:406:44 8.9248v1m
142.1279MYON Luc36FRA4:42:486:44 8.9175sem
143.1111FOSSEUX Thierry55FRA4:43:076:45 8.9011v2m
144.1214HENRICHS Julien31BEL4:44:226:47 8.8676sem
145.1005MASSET Bruno53FRA4:44:326:47 8.8612v2m
146.1338FCRISTOVA Sabina39FRA4:45:016:48 8.846sef
147.1027LECUYER Ludovic39FRA4:45:126:48 8.8477sem
148.1305GREBAUX Jean-Claude52FRAALC VIEUX CONDE4:45:136:48 8.8413v2m
149.1157RAMOS Michel47FRATEAM JUST4:45:216:48 8.8349v1m
150.1479DUBRULLE Julien31FRA4:45:396:49 8.8278sem
151.16121554067SARRASIN David44FRAEA DECHY GUESNA4:45:426:49 8.8250v1m
152.1056KEIL Yves47BELJOGGING'IN ATTI4:46:106:49 8.8151v1m
153.1154DHALLUIN Benoit40FRACOURIR AU MONT 4:46:176:49 8.8052v1m
154.1207PERRET Didier27FRAISBERGUES LA GR4:46:176:49 8.8079sem
155.1243GOLA Manuel33FRA4:46:286:50 8.8080sem
156.1136MOROSINI Clement35FRA4:46:406:50 8.7981sem
157.1022PRZYBYSZEWSKI Yohan28FRAABEILLE RUSH4:47:056:51 8.7882sem
158.1313HUREZ Daniel46FRAPHALEMPIN A-C4:47:376:51 8.7653v1m
159.1347MARTEL Philippe34FRAGRAVELINES TRIA4:47:506:52 8.7683sem
160.1048LUBRET Remy37FRA4:47:576:52 8.7584sem
161.1047DAUDRUY Nicolas43FRA4:47:576:52 8.7554v1m
162.1583BEAUCHAMP Rodrigue32FRA4:48:046:52 8.7585sem
163.1585MANCEAU Pierre34FRA4:48:046:52 8.7586sem
164.1515FBAQUET Maîté26BEL4:48:406:53 8.737sef
165.1071NOLLET Antoine39FRA4:48:436:53 8.7387sem
166.10521805276BEAURAIN Jeremy32FRA4:48:476:53 8.7388sem
167.1287BELLAND Aurelien35FRA4:50:026:55 8.6989sem
168.1170FBEBIN Sophie41FRA4:50:086:55 8.693v1f
169.1244BLERVAQUE Sebastien36FRAECLA LANDAS4:50:146:55 8.6890sem
170.1079FMAQUINGHEN Celine41FRAATHLÉTISME SAIN4:50:206:55 8.684v1f
171.1039ROSSIGNON Vincent40BEL4:50:266:55 8.6855v1m
172.15611707735TRIPLET Matthieu42FRAOLYMPIQUE CLUB 4:50:346:56 8.6756v1m
173.1140DESWARTE Jeremy34FRA4:50:476:56 8.6791sem
174.1158DESMULLIER Stephane50FRAATHLÉTISME TÉTE4:50:496:56 8.6714v2m
175.1539FCHOMETTE Marion26FRA4:51:226:57 8.658sef
176.1535SAINT LEZER Alexis28FRA4:51:226:57 8.6592sem
177.1618FVANDEKAN Sylvie43FRA4:51:376:57 8.645v1f
178.1106PERON Matthieu33FRA4:52:036:58 8.6393sem
179.1215BOILLY Jérémy31FRA4:52:266:58 8.6294sem
180.1074VARNEWYCK David45FRA4:52:306:58 8.6257v1m
181.1506BUTIN Vianney47FRA4:52:306:58 8.6258v1m
182.1217ARNAUD Claude62FRA4:52:326:58 8.612v3m
183.1075FRANCHY Fabienne45FRA4:52:346:58 8.616v1f
184.1135FRANCOIS Nicolas38FRALES BAUDETS HIN4:52:416:59 8.6195sem
185.1177FLEMÉE Maëlys28FRA4:53:046:59 8.609sef
186.1167CRETON Fabrice48FRA4:53:136:59 8.5959v1m
187.1536FANCHUELO Mylène38FRA4:53:176:59 8.5910sef
188.1309LESZCZYNSKI Rodolphe43FRA4:53:257:00 8.5960v1m
189.1483DRIEUX Thibault29FRA4:54:227:01 8.5696sem
190.1640BEAGUE Gaetan53FRAPHALEMPIN4:54:447:02 8.5515v2m
191.1296FLAUWERS Virginie46FRA4:54:557:02 8.547v1f
192.1582VOLPI Gregory36FRAKALENJI4:55:017:02 8.5497sem
193.1002464022FBRIDOUX Christine50DECATHLON ST-MA4:55:067:02 8.542v2f
194.1143BOUCHEZ Cédric33BELJOYEUX JOGGEURS4:55:157:02 8.5498sem
195.1299IUNG Anthony33FRA4:55:307:03 8.5399sem
196.1330FMOGUET Cecile40FRARCA TRIATHLON4:55:367:03 8.538v1f
197.1329FACHE Mathieu34FRARACING CLUB ARR4:55:367:03 8.53100sem
198.1324MOGUET Freddy42FRARCA TRIATHLON4:55:377:03 8.5261v1m
199.1227DELCOURT Antoine35FRA4:55:467:03 8.52101sem
200.1229FFAOUEN Brigitte53FRA4:56:047:03 8.513v2f
201.1319CHARLES Stéphane43BELJC HÉRINNES4:56:047:03 8.5162v1m
202.1141PETIT Rémy50FRASPONDY RUN4:56:147:04 8.5116v2m
203.1050JOURNET Romain32FRA4:56:167:04 8.51102sem
204.1222CHIMOT Remi26FRATEAM OWEN'S 364:57:007:05 8.49103sem
205.1620BRINGUETZ Michel47FRALES FURETS CAUC4:57:137:05 8.4863v1m
206.1614MEERSSEMAN Dirk54BELJOGGING CLUB DE4:57:337:06 8.4717v2m
207.13111806176BOUDET Christophe43FRAOCT 554:57:427:06 8.4764v1m
208.1530MAGNIEZ Yohan25FRA4:57:577:06 8.46104sem
209.1503MARTINET Anthony32FRA4:58:277:07 8.44105sem
210.12571947134ARNAN Jerome44FRARUN POUR TOUS4:58:327:07 8.4465v1m
211.1024GIRAULT Thomas43FRAFLEURBAIX J'Y C4:58:357:07 8.4466v1m
212.1639HERNANDEZ Mathieu31FRA4:58:387:07 8.44106sem
213.1586CUVELIER Simon37FRA4:59:017:08 8.43107sem
214.1087CHUDYBA Jean-Marie49FRAJOG'IN ATTITUDE4:59:017:08 8.4367v1m
215.1456FLIBOTTE Virginie40FRAJOG' IN ATTITUD4:59:027:08 8.439v1f
216.1239ARCHIMBAUD Yves52FRADAUPHINS DE SCE4:59:087:08 8.4218v2m
217.1055GIUNGATO Tommaso33FRA4:59:267:08 8.42108sem
218.1509FVASSEUR Carole47FRASOUL & ZAZ'RUN4:59:317:08 8.4110v1f
219.1196HENNON Vincent44FRA5:00:187:09 8.3968v1m
220.1176FEDERBE Thierry45FRA5:00:327:10 8.3969v1m
221.1270CALVARY Matthieu36FRAASUD5:01:567:12 8.35109sem
222.12901537576ALFONSETTI Tullio51FRAEA DECHY GUESNA5:01:567:12 8.3519v2m
223.1269TERNISIEN Ugo37FRA5:01:567:12 8.35110sem
224.1230DEBOUDT Olivier50FRA5:02:177:12 8.3420v2m
225.1317JACINTO Victor45FRAJOGGING CLUB BA5:02:257:13 8.3370v1m
226.15581766126FCADART Sophie45FRAA C SECLIN5:02:267:13 8.3311v1f
227.1175DELOBELLE Marcel53FRA5:02:387:13 8.3321v2m
228.1117LASSON Emmanuel42FRAACPF FERIN5:02:387:13 8.3371v1m
229.1247BALLOT Guillaume30FRA5:02:417:13 8.33111sem
230.11271941773FAUBERT Magali41FRALA PATRIOTE CRO5:02:597:13 8.3212v1f
231.1485HUGOT Christophe51FRA5:03:277:14 8.3022v2m
232.1484CORDIER Raphael43FRA5:03:277:14 8.3072v1m
233.1576MAYAUD Romain33FRA5:03:447:14 8.30112sem
234.1145CAPPELAIRE Olivier53FRABLAIREAUX5:04:107:15 8.2923v2m
235.1099LEROY Olivier37FRA5:04:217:15 8.28113sem
236.1568DUCARNE Laurent33FRA5:04:257:15 8.28114sem
237.1252TAMINIAU Arnaud32BEL5:04:447:16 8.27115sem
238.1520DEBOUT Yves50FRAUC BOUQUEHAULT5:04:517:16 8.2724v2m
239.1188PIERON Vincent47BELLES ECLATÉS PER5:05:287:17 8.2573v1m
240.1266ROUSSEAU Julien39FRAALLFRIENDS5:05:557:18 8.24116sem
241.1608FHORDE Emilie41FRAGRAVITY RUNNING5:06:027:18 8.2313v1f
242.1534FEUTRY Patrick44FRAAC OUTREAU5:06:057:18 8.2374v1m
243.1537DEMARET Raymond62BEL5:06:087:18 8.233v3m
244.1240LEMAN Gatien45FRA5:06:097:18 8.2375v1m
245.1635EICKMAYER Renaud43FRA5:06:137:18 8.2376v1m
246.1543KINET Olivier46BELRUNNING TEAM CO5:06:417:19 8.2277v1m
247.1574PAREZ Jérémy29BEL5:06:477:19 8.21117sem
248.1627FDARCIS Marine29BEL5:06:507:19 8.2111sef
249.1610GARCIA Daniel47FRA5:06:537:19 8.2178v1m
250.1209TREMELAT Guillaume31FRA5:07:077:19 8.21118sem
251.1494DUBOYS DES TERMES Axel55FRA5:07:077:19 8.2125v2m
252.1268BRACKE Piet51BELKRC GENT ATLETI5:07:177:19 8.2026v2m
253.1065HIARD Andre59FRA5:07:257:20 8.2027v2m
254.11391690066FBOSO Esther47FRAACSA5:07:347:20 8.1914v1f
255.1191JOLY Gregory41FRA5:07:357:20 8.1979v1m
256.1114COULON Xavier43FRAVATRIATHLON5:07:457:20 8.1980v1m
257.1647VERRIER Reynald45FRA5:08:007:20 8.1881v1m
258.1181COLLARD Stephane43BEL5:08:267:21 8.1782v1m
259.1059DE PESSEMIER Michel60BEL5:08:307:21 8.174v3m
260.1153FLECOMTE Sylvia36FRATOUS ENSEMBLE P5:09:047:22 8.1512sef
261.1322DAGBERT Joël54FRACAP COIGNIERES5:09:257:23 8.1428v2m
262.1605SACRE Bernard58FRA5:09:437:23 8.1429v2m
263.1285DENTENER Vincent35FRA5:09:577:23 8.13119sem
264.1189CARLIER Nicolas56FRA5:10:147:24 8.1230v2m
265.1339RASSINON Samuel35FRA5:10:237:24 8.12120sem
266.1336CATTEAU Laurent49FRA5:11:037:25 8.1083v1m
267.1600HESPEL Damien48FRA5:11:047:25 8.1084v1m
268.1314HEME Jean Marc58FRAXTREM CHALENGES5:11:217:25 8.0931v2m
269.1276BERTRAND Laurent48FRAPAC PHALEMPIN5:12:087:26 8.0785v1m
270.1559BEL GAHLA Mohammed52FRA5:12:097:26 8.0732v2m
271.1481MAYEUX Pi Erreur Yves39FRAS/LA EA TAIN-TO5:12:137:27 8.07121sem
272.1623WEPPE Ludovic39FRA5:12:287:27 8.07122sem
273.1092DEMAESENEIRE Ludovic37FRALA FORESTIÈRE5:12:417:27 8.06123sem
274.1137SOUFLET Didier46FRA5:13:137:28 8.0586v1m
275.1108DUHEZ Aurelien30FRAVA TRI5:13:227:28 8.04124sem
276.1216FBRUNIAUX CERTOSIO Marie O49FRA5:13:267:28 8.0415v1f
277.1147MARICHAL Benjamin31FRA5:14:067:29 8.02125sem
278.1169DUVIEUBOURG David49FRA5:14:447:30 8.0187v1m
279.1304FDE MEULENAERE Els55BELGENTLOOPT5:15:087:31 8.004v2f
280.12551845586LEDOUX Francois33FRATYPE 1 RUNNING 5:15:317:31 7.99126sem
281.1091CLAYTON Maximilien31FRATEAM CLEM5:15:397:31 7.98127sem
282.1090PONTIER Clément33FRATEAM CLEM5:15:397:31 7.98128sem
283.1089CARDON Gaetan33FRATEAM CLEM5:15:407:31 7.98129sem
284.1638HUL Frédéric48FRA5:15:587:32 7.9888v1m
285.1245DELAHAYE Vincent49FRA5:16:227:32 7.9789v1m
286.1009FHANON Helene41FRA5:16:317:33 7.9616v1f
287.1010TURI Maurizio39FRA5:16:317:33 7.96130sem
288.1513LESNIAK Philippe46FRACOACH SPORT SAN5:16:537:33 7.9590v1m
289.1062BRICHE Julien36FRALES LOUPS BLANC5:17:367:34 7.93131sem
290.12491742283PHELIPPEAU Daniel60FRAJOGGING CLUB BI5:18:217:35 7.925v3m
291.1499SAINT OLIVE Geoffroy41FRA5:19:367:37 7.8891v1m
292.1512COPPIN Jérome42FRA5:19:377:37 7.8892v1m
293.1133BONDT Xavier46FRA5:19:387:37 7.8893v1m
294.1104LEFEBVRE Ronald47BELRCE5:20:407:39 7.8694v1m
295.1525GALLIEZ David46FRA5:20:407:39 7.8695v1m
296.12131359186SGARD Philippe41FRAOSM LOMME ATHLE5:20:467:39 7.8696v1m
297.1588DE VOS Jonathan40FRA5:21:167:39 7.8497v1m
298.1200OLIVIER Jerome33FRA5:21:187:39 7.84132sem
299.1459VANDERBEKEN Timothée36FRAWASP5:21:197:40 7.84133sem
300.1596FOGAR Annick53FRA5:21:327:40 7.845v2f
301.1592LABIJAK Richard29FRA-5:22:257:41 7.82134sem
302.1234PELINI Vincent39FRA5:22:367:41 7.81135sem
303.1233PASSCHIER Sébastien41FRA5:22:367:41 7.8198v1m
304.1172CRIGNON Philippe45FRA3CTEAM5:22:397:41 7.8199v1m
305.1066FTRUWANT Michael35BEL5:22:427:41 7.8113sef
306.1277LETOT Christophe32BEL5:22:507:42 7.81136sem
307.1000GUILLEMANT Vincent385:23:007:42 7.80137sem
308.1070ERNOULD Alain52BELJOG HERMETON5:23:197:42 7.7933v2m
309.1208BONTE Charles37BELJCL5:23:197:42 7.79138sem
310.1528FRIGOULET Dorothee39FRA5:23:357:43 7.7914sef
311.1103AUDREZET Guillaume41FRA5:23:537:43 7.78100v1m
312.1524BAUDY Jerome43FRA5:24:037:43 7.78101v1m
313.1197FHORINKA Sandrine40BELRCBT5:24:377:44 7.7617v1f
314.1462FPOTDEVIN Sandra32FRA5:24:477:44 7.7615sef
315.1054LOMBARD Vivien38FRA5:25:017:45 7.75139sem
316.1053BARTHELEMY Nicolas43FRA5:25:017:45 7.75102v1m
317.1601CICZORA Yann39FRA5:25:237:45 7.74140sem
318.1518CAULIER Freddy57FRAAC OUTREAU5:25:537:46 7.7334v2m
319.1082NAVET Sebastien49FRA5:25:547:46 7.73103v1m
320.1131KIEKEN Gregory40FRA5:25:577:46 7.73104v1m
321.1644PECQUEUR Matthieu38FRAALLFRIENDS5:25:597:46 7.73141sem
322.1015CORDIER Guillaume44FRA5:26:037:46 7.73105v1m
323.1593KLÉPAL Hervé46FRATHE ALTRAMAN5:26:417:47 7.71106v1m
324.1067HARDY Steve45FRA5:27:157:48 7.70107v1m
325.1491DEJONGHE Timon48BELALPRO LEIEMARAT5:27:357:48 7.69108v1m
326.1080FSZYJA Monique58FRAJOGGING CLUB DE5:27:447:49 7.696v2f
327.1281MEUNIER Stéphane44FRA5:27:517:49 7.69109v1m
328.1057GRZESINSKI Bernard56BELJOG'IN ATTITUDE5:27:557:49 7.6935v2m
329.1165ANNEESSENS Joachim25BEL5:28:277:50 7.67142sem
330.1552HERPSON Michael33FRA5:28:367:50 7.67143sem
331.1134BAFCOP Christian61FRA5:28:417:50 7.676v3m
332.1211LEFEVRE Gérard51BEL5:29:037:51 7.6636v2m
333.1297BALLY Olivier46FRA5:29:367:51 7.65110v1m
334.1020DUBUIS Andy32FRA5:29:527:52 7.64144sem
335.1342DE BETTIGNIES Marc Antoine40FRA5:30:187:52 7.63111v1m
336.1343SENLIS Arnaud40FRA5:30:187:52 7.63112v1m
337.1597CHARLIER Benoît34BEL5:30:217:52 7.63145sem
338.1241DELEAU Hugues45FRA5:30:267:53 7.63113v1m
339.1037FSELLIEZ Céline40FRATEAM GRAVELINES5:31:387:54 7.6018v1f
340.1310COEVOET Guillaume33FRACE ALSTOM5:31:397:54 7.60146sem
341.1334VANDOMME Matthieu30FRATEAM TRAIL GRAV5:31:417:54 7.60147sem
342.1246JOOS Christophe49FRA5:31:567:55 7.59114v1m
343.1163LAMBERT Gauthier30FRA5:32:237:55 7.58148sem
344.1123BOURRE Thibaut29FRA5:32:237:55 7.58149sem
345.1306FBRIOIS Andoniaina Mirana41FRA5:32:507:56 7.5719v1f
346.1220VALAY Franck45FRA5:32:597:56 7.57115v1m
347.1186RAHMOUNI Salim45FRA5:33:137:57 7.56116v1m
348.1184FBLANC Barbara32FRA5:33:337:57 7.5616sef
349.1183MASSET Nicolas32FRA5:33:337:57 7.56150sem
350.1098LABIOUSE Christophe40BEL5:33:367:57 7.55117v1m
351.1532BECARD David38FRA5:33:577:58 7.55151sem
352.1340HEYE Damien40FRA5:33:577:58 7.55118v1m
353.1542FVANDERMISSEN Patricia54BELJOG'IN ATTITUDE5:33:577:58 7.557v2f
354.1579KARASIAK Fabien25FRA5:34:217:58 7.54152sem
355.1063LESNES Renaud46FRA5:34:507:59 7.53119v1m
356.1267ROBAKOWSKI Antoine29FRA5:34:517:59 7.53153sem
357.1331LEBLANC Etienne22FRAASL CANOË KAYAK5:35:077:59 7.52154sem
358.1341COURTEVILLE Alex41FRA5:35:578:00 7.50120v1m
359.1476FCENZANO Vanessa37ESP5:36:068:01 7.5017sef
360.1271BAILLY Francois31FRA5:36:088:01 7.50155sem
361.1159PUYPE Benoit28FRA5:36:318:01 7.49156sem
362.1346ERIC Vanrenterghem54FRALES TRAILEURS D5:36:518:02 7.4837v2m
363.1206DELATTRE Sylvain36FRAISBERGUES LA GR5:36:518:02 7.48157sem
364.1155FDHALLUIN Isabelle40FRACOURIR AU MONT 5:36:518:02 7.4820v1f
365.1119TILLIE Oliver40BEL5:37:018:02 7.48121v1m
366.1122DEGRANSART Johan42FRALES B BÊTES DE 5:37:068:02 7.48122v1m
367.1489FTRUONG Julie31BEL5:37:098:02 7.4718sef
368.1023FMATTIUZ Audrey37BELJOG'IN ATTITUDE5:37:438:03 7.4619sef
369.1486DELPIERRE Arnaud41FRACRANKS 745:38:008:03 7.46123v1m
370.1632BASTIEN Laurent41FRACRANKS 745:38:018:03 7.46124v1m
371.12361536276FBAUGNON Isabelle37FRAS/ OLYMPIQUE CL5:39:028:05 7.4320sef
372.10421161611DEBROUX Jean-Noel59FRARONCHIN ATHLETI5:40:358:07 7.4038v2m
373.1471THOMAS Geoffrey35FRACOURIR À GRAVEL5:40:488:07 7.39158sem
374.1323DUBREUCQ Simon30FRA5:42:308:10 7.36159sem
375.1531EL JAILANI Sabri44FRA5:43:028:11 7.35125v1m
376.1498MAQUET Denis31BEL5:43:098:11 7.34160sem
377.1235FAYET Anne-Sophie31FRA5:43:108:11 7.3421sef
378.1032LEMAY Jerome46FRA5:43:178:11 7.34126v1m
379.1198LEROUX Geoffrey37FRA5:43:188:11 7.34161sem
380.1195SEILLIER Ludovic37FRA5:43:198:11 7.34162sem
381.1615VILLAIN Rene67FRA5:43:248:11 7.347v3m
382.1132MASCLET Emmanuel50FRA5:43:258:11 7.3439v2m
383.1325FFERTAS Nadia41FRAAC SECLINOIS5:43:338:11 7.3421v1f
383.1302VANHULLE Philippe56FRA5:43:338:11 7.3440v2m
385.1458COUSIN Nicolas36FRAWASPS5:43:378:11 7.33163sem
386.1598LINARD Guillaume30FRA5:43:578:12 7.33164sem
387.1152SAULNIER François25FRA5:44:208:12 7.32165sem
388.1327FCLAIDIERE Anne Sophie41FRA5:45:328:14 7.2922v1f
389.1073HAESEN Edwin36BEL5:46:038:15 7.28166sem
390.1095DELATTRE Jean-Sébastien44FRA5:46:148:15 7.28127v1m
391.1307SAGOT Yannick53FRATHALES5:47:078:16 7.2641v2m
392.1282DUCRON Christian52FRA5:48:498:19 7.2242v2m
393.1085FORMONT Stephane38FRACHIERRY J'Y COU5:48:508:19 7.22167sem
394.1084FTOP Virginie44FRACHIERRY J'Y COU5:48:518:19 7.2223v1f
395.1201FOURNIER Jérôme39FRAPATRIOTE CROSS 5:49:038:19 7.22168sem
396.1204FCOQUERELLE Olivia40FRAPATRIOTE CROSS 5:49:038:19 7.2224v1f
397.1242MAQUET Romann33FRA5:49:198:20 7.21169sem
398.1507FGAUTHIER Sylvie32BELCARACO'TRAILERS5:50:168:21 7.1922sef
399.12841950126FPAILLARD Faustine31FRA5:50:218:21 7.1923sef
400.1069SIGIEZ Fabien46FRATEAM TRAIL OPAL5:50:338:21 7.19128v1m
401.1345DEMEULENAERE Eric55FRA5:50:378:21 7.1943v2m
402.1202LE GARFF Erwan33FRA5:50:578:22 7.18170sem
403.1263FPATOUX Isabelle43FRAAGNETZ ATHLETIS5:52:088:24 7.1625v1f
404.1320FBELLINO Relin Mary29FRACACAHUÈTE5:53:148:25 7.1324sef
405.12281680299BORDAIS Francois43FRACACAHUÈTE5:53:148:25 7.13129v1m
405.1321POIGNANT Joseph30FRACACAHUÈTE5:53:148:25 7.13171sem
407.1496SARAIVA Bruno33FRA5:53:188:25 7.13172sem
408.12611846398LARDET Olivier38FRAASCAI5:53:308:25 7.13173sem
409.1171DEVILLERS Julien35FRA5:54:298:27 7.11174sem
410.1645FMARTIN Camille29FRA5:54:568:28 7.1025sef
411.1120FHANS Lieve47BEL5:55:158:28 7.0926v1f
412.1041164353FDYM Monique54FRARONCHIN ATHLÉTI5:56:058:29 7.088v2f
413.1538GRANDMONT André56BELARCH5:58:038:32 7.0444v2m
414.1488FASSOTTE Raphael43FRA5:58:358:33 7.03130v1m
415.1487FBEAUWENS Florence29BEL5:58:368:33 7.0326sef
416.1609CERNOIS Christophe33FRA5:59:438:34 7.01175sem
417.1570FDE NEUVILLE Geraldine29FRA6:00:018:35 7.0027sef
418.1595ROUSSEL Philippe46FRA6:00:508:36 6.98131v1m
419.1178FBLONDEEL Nina27FRA6:02:128:38 6.9628sef
420.1179FBLONDEEL Marie33FRA6:02:138:38 6.9629sef
421.1003MANSOUR Nizar45DECATHLON ST-MA6:02:178:38 6.96132v1m
422.10781924978FDELPLANQUE Audrey41FRAARTOIS ATHLETIS6:05:348:43 6.8927v1f
423.1072CHEVANDIER Yann44FRA6:06:068:43 6.88133v1m
424.1649FSELWA Sylvie48FRA6:06:288:44 6.8828v1f
425.1318FABAD LAMAS Haydee Patricia53BELXPLORA6:07:448:46 6.859v2f
426.1580GOSSELIN Jeremy27FRARUNNERS EN NORD6:08:258:47 6.84176sem
427.1581MINNEKEER Laurent41FRA6:08:278:47 6.84134v1m
428.15621823481LEJOSNE Benjamin31FRAARTOIS ATHLÉTIS6:08:478:47 6.83177sem
429.1096FWYPYCH Isabelle56FRA6:09:048:48 6.8310v2f
430.1051DEVOYE Cyril36FRAJUSTE POUR LE P6:09:378:49 6.82178sem
431.1004ABRAMOWICZ Eric36FRA6:10:448:50 6.80179sem
432.1567DE LA DÉBUTRIE Guillaume41FRABBB6:11:178:51 6.79135v1m
433.1301FDE LA DEBUTRIE Isabelle43FRA6:11:188:51 6.7929v1f
434.1633REZENTHEL David51FRAMANITOU TRIATHL6:11:288:51 6.7845v2m
435.1482STYPUIKOWSKI Patrice51FRAAC PHALEMPIN6:12:008:52 6.7746v2m
436.1210CRAPET Sebastien33FRA6:12:288:53 6.77180sem
437.1335DIÉVAL Edouard34FRA6:12:328:53 6.76181sem
438.1162LEROY Julien35FRA6:14:378:56 6.73182sem
439.1083FMAQUIGNON Margaux28FRA6:14:568:56 6.7230sef
440.1045MAQUIGNON Denis54FRA6:14:568:56 6.7247v2m
441.1040LECOMTE Rémi22FRA6:18:049:01 6.67183sem
442.1646ABOGHET Justin35FRA6:18:049:01 6.67184sem
443.1086CARIOU Bertrand51FRA6:18:399:01 6.6648v2m
444.12561947135PETIGNY Christophe45FRARUN POUR TOUS6:21:099:05 6.61136v1m
445.1138FROSSIER Emilie37FRAPUANTE6:21:109:05 6.6131sef
446.1344NR 1344 XXX6:25:519:12 6.531xxx
447.1629DE LA TAILLE Bruno41FRA6:26:509:13 6.51137v1m
448.1294TAMIOTTI Jérôme42FRA6:26:579:13 6.51138v1m
449.1631PLANE Matthieu40FRA6:26:579:13 6.51139v1m
450.1630BOULANGER Xavier43FRA6:26:579:13 6.51140v1m
451.1218FEYRER Yvan46FRA6:26:599:13 6.51141v1m
452.1265ROSSÉ Adrien32FRA6:27:119:14 6.51185sem
453.1264ADRIAENSSENS Marc58BEL6:27:519:15 6.5049v2m
454.1232FGUMANN Sina40DEU6:28:179:15 6.4930v1f
455.1146FKIRN Eleonore36FRACOURIR À GRAVEL6:29:599:18 6.4632sef
456.1221COUSIN Yohan38FRA6:34:139:24 6.39186sem
457.1504FAUVEL Philippe49FRA6:40:209:32 6.29142v1m
458.1643FRINGOT Amandine27FRALES LOUPS BLANC6:41:279:34 6.2833sef
459.1300BEGHIN David33FRA6:54:309:53 6.08187sem
460.1460SALLIER Arnaud41FRA6:56:239:55 6.05143v1m
461.1116CNUDDE Jean Sébastien35FRA7:01:1510:02 5.98188sem
462.1641NOEL Johan34FRA7:18:1610:27 5.75189sem
DSQ1511BULLIARD Xavier53FRA2:35:14v2m
DSQ10261959797POUZADOUX Richard43FRAUS MARQUETTE2:56:43v1m
DSQ1565CARRE Laurent43FRA3:33:27v1m
DSQ1129HEROUART Quentin28FRA5:32:23sem
DNF15601764548ANSELIN Laurent26FRAOCT55sem
DNF1493DAVID Jerome30FRAsem
DNF1617DUPON Sven43BELv1m
DNF1308GOLLIOT Freddy45FRAv1m
DNF1112LEROY Guillaume39FRAsem
DNF12621882133OLBRECK Loic34FRARUNNERSENNORDsem
DNF1502FPEDERIVA Marine25FRAsef
DNF1584VASSEUR Mickael45FRAv1m
DNF: abandon; DSQ: disqualifié; Vitesse en km/h
Page: [1]